Regional Weather Roundup
Issued by NWS

Home | Current Version | Previous Version | Graphics & Text | Print | Product List | Glossary On
Versions: 1 2 3 4 5 6 7 8 9 10 11 12 13 14 15 16 17 18 19 20 21 22 23 24 25 26 27 28 29 30 31 32 33 34 35 36 37 38 39 40 41 42 43 44 45 46 47 48 49 50
000
ASUS43 KMPX 241401
RWRMN
WEATHER ROUNDUP FOR MINNESOTA
NATIONAL WEATHER SERVICE TWIN CITIES/CHANHASSEN MN
900 AM CDT WED AUG 24 2016


NOTE: "FAIR" INDICATES FEW OR NO CLOUDS BELOW 12,000 FEET WITH NO
SIGNIFICANT WEATHER AND/OR OBSTRUCTIONS TO VISIBILITY. N/A MEANS
CURRENT SKY AND/OR WEATHER CONDITIONS ARE NOT AVAILABLE.

MNZ060>063-068>070-241500-
   Twin Cities Metro

CITY           SKY/WX    TMP DP  RH WIND       PRES   REMARKS
TWIN CITIES    CLOUDY    71  67  87 NW6       29.86R
ST PAUL        CLOUDY    70  67  90 W8        29.86R
CRYSTAL        CLOUDY    69  65  86 W5        29.85R
BLAINE         PTSUNNY   72  70  94 W7        29.85R
LAKEVILLE      CLOUDY    70  70 100 W6        29.87R
EDEN PRAIRIE   CLOUDY    70  67  90 W3        29.85S
LAKEVILLE      CLOUDY    70  70 100 W6        29.87R
SOUTH ST PAUL  PTSUNNY   70  69  94 W6        29.86R
LAKE ELMO      PTSUNNY   70  68  94 W5        29.87R
$$
MNZ001>005-007-008-013>017-022>024-027-028-241500-
   Northwest Minnesota

CITY           SKY/WX    TMP DP  RH WIND       PRES   REMARKS
BEMIDJI        SUNNY     65  55  70 W10       29.84S
HALLOCK        SUNNY     61  55  82 W10       29.80R
ROSEAU         SUNNY     64  57  77 W7        29.79S
WARROAD        SUNNY     64  57  77 W10       29.78F
THIEF RVR FALL SUNNY     63  53  70 W15       29.84R
CROOKSTON      SUNNY     63  54  72 W14       29.84S
FOSSTON        SUNNY     61  55  82 SW7       29.85F
DETROIT LAKES  SUNNY     64  52  63 W8        29.90R
MOORHEAD       SUNNY     64  52  63 W13       29.89S
PARK RAPIDS    SUNNY     67  56  67 W15       29.86S
MAHNOMEN       FAIR      62  52  69 W13       29.87R
$$
MNZ006-009>011-018-025>026-241500-
   North Central Minnesota

CITY           SKY/WX    TMP DP  RH WIND       PRES   REMARKS
BAUDETTE       PTSUNNY   66  62  87 W17       29.78R
FLAG ISLAND    PTSUNNY   66  61  82 W7        29.74R HAZE
INTL FALLS     CLOUDY    70  66  87 W12       29.76R
WASKISH        SUNNY     66  63  88 W12G20    29.80S
BIG FORK       CLOUDY    70  64  83 SW6       29.80R
LONGVILLE      PTSUNNY   72  64  78 W5        29.83R
GRAND RAPIDS   PTSUNNY   70  66  87 W8        29.83R
CRANE LAKE     PTSUNNY   66  64  94 SW5       29.78F
ORR            MOSUNNY   70  63  78 CALM      29.76S
COOK           SUNNY     70  64  83 SW6       29.79S
WALKER         FAIR      66  58  74 W8        29.84R
$$
MNZ012-019>021-037-241500-
   Northeast Minnesota

CITY           SKY/WX    TMP DP  RH WIND       PRES   REMARKS
DULUTH         PTSUNNY   67  65  93 W7        29.82S
ELY            CLOUDY    68  63  83 S6        29.80S
HIBBING        PTSUNNY   66  64  93 SW3       29.80S
EVELETH        CLOUDY    65  65  98 S5        29.82S
DULUTH HARBOR  CLOUDY    70  66  88 SW6       29.80F
TWO HARBORS    PTSUNNY   70  64  83 CALM      29.79S
SILVER BAY     CLOUDY    64  64 100 CALM      29.79F
GRAND MARAIS     N/A     69  66  90 NE5       29.79F
G MARAIS ARPRT CLOUDY    64  61  88 S5        29.84S
$$
MNZ029>031-032-039>041-046>048-054>057-064-241500-
   West Central Minnesota

CITY           SKY/WX    TMP DP  RH WIND       PRES   REMARKS
FERGUS FALLS   SUNNY     61  54  77 W8        29.93R
WHEATON        SUNNY     66  55  68 W9        29.94R
MORRIS         SUNNY     64  55  72 NW12      29.91R
ALEXANDRIA     SUNNY     67  59  75 W7        29.91R
ELBOW LAKE     FAIR      61  55  80 NW7       29.92R
WADENA         SUNNY     66  59  77 W9        29.88R
GLENWOOD       SUNNY     66  61  82 W9        29.91R
APPLETON       SUNNY     66  54  63 W6        29.92R
BENSON         SUNNY     66  52  59 N9        29.92R
ORTONVILLE     SUNNY     66  52  59 NW13      29.93R
MADISON        SUNNY     66  54  63 NW7       29.94R
WILLMAR        FAIR      68  63  83 W12       29.93R
$$
MNZ033>034-036-042>043-049>051-058-059-241500-
   Central Minnesota

CITY           SKY/WX    TMP DP  RH WIND       PRES   REMARKS
ST CLOUD       MOSUNNY   71  68  90 NW9       29.86R
SAUK CENTRE    FAIR      69  60  73 W8        29.89R
PAYNESVILLE    SUNNY     70  66  88 W10       29.89S
AITKIN         PTSUNNY   73  64  73 W5        29.82R
PINE RIVER     MOSUNNY   70  61  73 W6        29.88R
BRAINERD       MOSUNNY   71  63  75 W9        29.85R
STAPLES        SUNNY     66  57  72 W9        29.87R
LONG PRAIRIE   FAIR      68  55  64 W12       29.89R
LITTLE FALLS   PTSUNNY   70  61  73 W6        29.86R
LITCHFIELD     MOSUNNY   72  68  88 NW6       29.89R
BUFFALO        CLOUDY    69  66  91 W7        29.88R
MAPLE LAKE     CLOUDY    70  69  96 W5        29.88R
HUTCHINSON     PTSUNNY   71  70  96 W8        29.90R FOG
$$
MNZ037-044-045-052-053-241500-
   East Central Minnesota

CITY           SKY/WX    TMP DP  RH WIND       PRES   REMARKS
PRINCETON      CLOUDY    70  68  94 W5        29.86R
MORA           CLOUDY    64  63  94 CALM      29.86R
CAMBRIDGE      PTSUNNY   72  66  83 W3        29.84R
RUSH CITY      RAIN      67  65  93 CALM      29.85S
MOOSE LAKE     CLOUDY    66  64  94 CALM      29.81S FOG
HINCKLEY       CLOUDY    68  66  94 SW7       29.84S
CLOQUET        PTSUNNY   68  64  88 CALM      29.82S
MCGREGOR       CLOUDY    68  64  88 CALM      29.83S
$$
MNZ071>073-080-081-089-090-097-098-241500-
   Southwest Minnesota

CITY           SKY/WX    TMP DP  RH WIND       PRES   REMARKS
MONTEVIDEO     SUNNY     70  63  78 N7        29.95R
GRANITE FALLS  SUNNY     66  58  75 W12       29.94R
CANBY          SUNNY     68  55  62 W8        29.97R
MARSHALL       SUNNY     67  54  63 NW12      29.95R
REDWOOD FALLS  SUNNY     67  61  81 NW6       29.91R
OLIVIA         SUNNY     68  63  83 NW8       29.90R
PIPESTONE      SUNNY     64  54  68 N5        29.97R
WINDOM         SUNNY     68  59  73 NW12G17   29.94R
WORTHINGTON    SUNNY     67  59  75 NW8       29.97R
JACKSON        SUNNY     68  59  73 NW9       29.96R
TRACY          SUNNY     68  58  71 NW7       29.96R
$$
MNZ065>067-074>077-082>085-091>093-241500-
   South Central Minnesota

CITY           SKY/WX    TMP DP  RH WIND       PRES   REMARKS
MANKATO        CLOUDY    70  66  88 NW8       29.89R
NEW ULM          N/A     68  66  94 NW10      29.91R FOG
ST JAMES       CLOUDY    63  61  94 W8        29.93R
FAIRMONT         N/A    N/A N/A N/A MISG        N/A
GLENCOE        CLOUDY    69  69 100 W6        29.89R FOG
FARIBAULT      CLOUDY    70  70 100 W8        29.89R
OWATONNA       CLOUDY    73  70  88 W5        29.88R FOG
WASECA         CLOUDY    72  70  94 NW9       29.90R FOG
ALBERT LEA     RAIN      70  70 100 W3        29.89R
$$
MNZ078>079-086>088-094>096-241500-
   Southeast Minnesota

CITY           SKY/WX    TMP DP  RH WIND       PRES   REMARKS
ROCHESTER      CLOUDY    73  72  96 W6        29.88R
RED WING       CLOUDY    72  70  94 W3        29.85R
STANTON        CLOUDY    72  68  88 W6        29.86R
DODGE CENTER   CLOUDY    73  70  88 W7        29.88R
WINONA         CLOUDY    72  68  88 SW3       29.86S
AUSTIN         CLOUDY    72  68  88 W5        29.88R
PRESTON        CLOUDY    71  69  92 S6        29.90R
$$
ABBREVIATIONS USED IN REMARKS
   TC - TEMPERATURES IN CELSIUS
  WCI - WIND CHILL INDEX
   HX - HEAT INDEX
  VSB - VISIBILITY
$$




USA.gov is the U.S. government's official web portal to all federal, state and local government web resources and services.